PAKSAT-MM1

Last updated on Thu Oct 30 2025 00:02:52 GMT+0000 (Coordinated Universal Time)

1 59915U 24104A 25302.47861774 .00000163 00000+0 00000+0 0 9994 2 59915 0.0129 205.2142 0001840 14.6217 28.7148 1.00272920 5214
UTC large
Height (km)
Speed (km/s)
/
Latitude / Longitude
Inclination (degrees)
Orbital Period (minutes)
Azimuth
Elevation
Range (km)
Doppler Factor

Next 0 passes for location: London (51.5072 / 0.1276)

Sorry there are no passes over London.